Preview of NWS' New Version of Forecast
This preview is not operational and should not be used for support decisions.

Regional Weather Roundup (RWR)

Issued by National Weather Service (NWS)

                            
000
ASUS42 KTBW 201317
RWRFL 
FLORIDA REGIONAL WEATHER ROUNDUP
NATIONAL WEATHER SERVICE TAMPA BAY RUSKIN FL
900 AM EDT TUE AUG 20 2019

NOTE: "FAIR" INDICATES FEW OR NO CLOUDS BELOW 12,000 FEET WITH NO
SIGNIFICANT WEATHER AND/OR OBSTRUCTIONS TO VISIBILITY.

FLZ001>010-012>015-112-114-115-201400-
PANHANDLE FLORIDA
  
CITY           SKY/WX    TMP DP  RH WIND       PRES   REMARKS
PENSACOLA      HVY RAIN  76  76 100 N13       30.08R VSB 1            
PENSACOLA NAS  RAIN      76  75  97 CALM      30.08R                  
MILTON NAS     PTSUNNY   75  75 100 CALM      30.10R                  
CRESTVIEW      PTSUNNY   75  73  93 E3        30.11R                  
VALPARAISO     FAIR      75  73  94 SE3       30.09R                  
MARY ESTHER    CLOUDY    78  73  84 CALM      30.08R                  
TRI COUNTY     FAIR      76  74  93 CALM      30.12R                  
PANAMA CITY    LGT RAIN  78  75  90 CALM      30.10R                  
APALACHICOLA   FAIR      79  75  87 CALM      30.11R                  

STATION/POSITION SKY/WX   TEMP    WIND        PRES    WAVE   SWELL
                          AIR SEA DIR/SP/G            HT/PER HT/PER
                          (F)     (DEG/KT/KT) (MB)    (FT/S) (FT/S)
30.1N   87.6W              81 84     CALM     1018.4R   2/ 7   2/ 7
29.2N   88.2W              79 83  160/ 10/ 12 1018.6R   2/ 7   2/ 7
28.8N   86.0W                 84  100/ 10/ 12 1019.1R   2/ 6   2/ 6
PANAMA CITY BEAC           79 85   40/  4/  5 1019.7R
TOWER C                    82     110/  8/  9 1019.8R
28.5N   84.5W              82      70/ 10/ 14 1019.7R   2/ 3   2/ 7

$$
FLZ011-016>038-118-127-128-134-139-239-201400-
NORTH FLORIDA
  
CITY           SKY/WX    TMP DP  RH WIND       PRES   REMARKS
MARIANNA       FAIR      77  76  96 VRB3      30.11R                  
TALLAHASSEE    CLOUDY    78  76  93 SE6       30.12R                  
PERRY          FAIR      78  76  96 CALM      30.13S                  
LIVE OAK       SUNNY     75  75 100 CALM      30.14R                  
CROSS CITY     FAIR      77  73  88 NE3       30.13S                  
LAKE CITY      FAIR      75  72  88 CALM      30.15R                  
GAINESVILLE    FAIR      78  72  81 NE5       30.16R                  
WILLISTON      FAIR      76  74  92 CALM      30.13R                  
MAYPORT NAS    PTSUNNY   81  74  79 CALM      30.13R                  
JACKSONVILLE   CLOUDY    80  74  81 CALM      30.13R                  
JAX NAS        PTSUNNY   80  72  76 NE3       30.14R                  
JAX CECIL      SUNNY     79  75  89 CALM      30.13R                  
FERNANDINA BEA FAIR      79  76  89 CALM      30.13S                  
ST AUGUSTINE   FAIR      79  76  90 CALM      30.15R                  
PALM COAST     SUNNY     82  77  83 E5        30.13R                  

STATION/POSITION SKY/WX   TEMP    WIND        PRES    WAVE   SWELL
                          AIR SEA DIR/SP/G            HT/PER HT/PER
                          (F)     (DEG/KT/KT) (MB)    (FT/S) (FT/S)
SHELL POINT      NOT AVBL
KEATON BEACH               77      70/  6/  6 1020.2R
CEDAR KEY                  76      30/  5/  6 1019.4R
FERNANDINA                 82 82              1020.9R
30.7N   81.3W                 81                N/A     1/ 8
MAYPORT                    79 83     CALM     1020.6R
31.4N   80.9W              81 82  180/  6/  6 1020.2R   1/ 8   2/ 8
ST AUGUSTINE               80 81  360/  3/  3 1020.9R

$$
FLZ040-043>046-052-053-057-058-063-144-201400-
INTERIOR CENTRAL FLORIDA
  
CITY           SKY/WX    TMP DP  RH WIND       PRES   REMARKS
OCALA          FAIR      78  74  87 E7        30.14R                  
LEESBURG       FAIR      83  77  82 NE7       30.13R                  
SANFORD        FAIR      82  77  84 E6        30.12R                  
ORLANDO EXEC   FAIR      82  76  81 E9        30.12R                  
ORLANDO INTL   FAIR      81  76  84 E8        30.12R                  
KISSIMMEE      FAIR      82  76  81 SE10      30.13R                  
WINTER HAVEN   FAIR      82  76  81 E7        30.12R                  
LAKELAND       MOSUNNY   81  75  83 E7        30.12R                  
BARTOW         MOSUNNY   81  77  89 SE5       30.11R                  
SEBRING        FAIR      80  76  86 SE7       30.11S                  
OKEECHOBEE     FAIR      81  73  78 SE3       30.10S                  

$$
FLZ041-047-054-059-064-141-147-201400-
EAST CENTRAL FLORIDA
  
CITY           SKY/WX    TMP DP  RH WIND       PRES   REMARKS
ORMOND BEACH   SUNNY     81  81 100 CALM      30.13R                  
DAYTONA BEACH  PTSUNNY   81  80  97 E3        30.12R                  
DELAND         FAIR      79  77  94 N3        30.13R                  
NEW SMYRNA BEA SUNNY     82  77  83 CALM      30.13R                  
JFK SPACE CTR  FAIR     N/A N/A N/A SE9         N/A                   
TITUSVILLE     MOSUNNY   84  81  89 SE7       30.12R HX  98           
CAPE CANAVERAL FAIR      83  79  88 CALM      30.10R HX  95           
MELBOURNE      FAIR      85  73  67 S6        30.11R                  
VERO BEACH     FAIR      84  75  74 SE8       30.11R                  
FT PIERCE      FAIR      84  73  69 E12       30.11R                  
STUART         MOSUNNY   84  75  74 SE7       30.13R                  

STATION/POSITION SKY/WX   TEMP    WIND        PRES    WAVE   SWELL
                          AIR SEA DIR/SP/G            HT/PER HT/PER
                          (F)     (DEG/KT/KT) (MB)    (FT/S) (FT/S)
28.5N   80.2W              84 84  150/  8/ 10 1019.7R   2/ 5   2/ 5
28.9N   78.5W              85 86  140/  8/ 10 1020.9R   2/ 8   2/ 8
TRIDENT PIER               82 80  130/  5/  7 1021.0
28.4N   80.5W                 80                N/A     2/ 5
27.5N   80.2W                 83                N/A     2/ 5

$$
FLZ050-056-061-142-242-148-248-149-249-151-251-155-255-
160-260-201400-
WEST CENTRAL FLORIDA
  
CITY           SKY/WX    TMP DP  RH WIND       PRES   REMARKS
CRYSTAL RIVER  FAIR      77  73  88 E7        30.13R                  
INVERNESS      FAIR      77  77 100 CALM      30.13R                  
BROOKSVILLE    FAIR      79  75  87 NE6       30.12R                  
CLEARWATER AIR FAIR      79  73  83 E7        30.10R                  
ST PETE CLEARW PTSUNNY   81  75  82 E6        30.11R                  
TAMPA INTL     FAIR      81  75  82 E6        30.11R                  
PLANT CITY     FAIR     N/A N/A N/A E5        30.14R                  
PETER O KNIGHT CLOUDY    82  79  89 E7        30.11R                  
ST PETERSBURG  FAIR      79  77  94 E15       30.09S                  
SARASOTA       FAIR      80  76  87 E6        30.07S                  
VENICE         FAIR      81  77  89 E12       30.09R                  

STATION/POSITION SKY/WX   TEMP    WIND        PRES    WAVE   SWELL
                          AIR SEA DIR/SP/G            HT/PER HT/PER
                          (F)     (DEG/KT/KT) (MB)    (FT/S) (FT/S)
27.3N   84.2W                 85                N/A     3/ 6
CLEARWATER BEACH           79 86   70/  9/ 12 1019.3R
MIDDLE TAMPA BAY           79     120/  8/ 11   N/A
VENICE                     80 85   80/  8/ 10 1018.8R

$$
FLZ066-069-070-075>078-162-262-165-265-201400-
SOUTHWEST FLORIDA AND KEYS
  
CITY           SKY/WX    TMP DP  RH WIND       PRES   REMARKS
PUNTA GORDA    FAIR      80  77  90 E7        30.10R                  
FT MYERS       FAIR      81  73  76 E7        30.08R                  
SOUTHWEST INTL FAIR      81  74  79 E10       30.08R                  
NAPLES         FAIR      83  76  79 E9        30.07R                  
IMMOKALEE      FAIR      82  77  83 E9G16     30.07R                  
MARATHON       PTSUNNY   86  74  67 E9        30.06R                  
KEY WEST NAS   PTSUNNY   86  75  69 E12       30.05R HX  95           
KEY WEST INTL  PTSUNNY   85  75  72 SE13      30.05R                  

STATION/POSITION SKY/WX   TEMP    WIND        PRES    WAVE   SWELL
                          AIR SEA DIR/SP/G            HT/PER HT/PER
                          (F)     (DEG/KT/KT) (MB)    (FT/S) (FT/S)
NAPLES                     80 85              1018.3R
26.0N   85.6W              85 86   80/ 12/ 16 1017.8R   3/ 7   2/ 7
DRY TORTUGAS               84     110/ 14/ 15 1017.5R
SAND KEY                   77     170/ 24/ 30 1016.2R
SOMBRERO KEY               84     120/ 14/ 17 1018.1
LONG KEY                   84                 1017.5

$$
FLZ067-068-071>074-168-172>174-201400-
SOUTHEAST FLORIDA 
  
CITY           SKY/WX    TMP DP  RH WIND       PRES   REMARKS
W PALM BEACH   PTSUNNY   76  72  87 SE12      30.13R                  
BOCA RATON     MOSUNNY   79  75  89 SE5       30.11R                  
FT LAUDER-EXEC PTSUNNY   78  74  87 SE7       30.10R                  
FT LAUDERDALE  PTSUNNY   78  74  87 SE8       30.09S                  
POMPANO BEACH  FAIR      79  74  84 SE12      30.10S                  
PEMBROKE PINES FAIR      79  74  84 E7        30.11R                  
OPA LOCKA      LGT RAIN  80  75  84 E9        30.10R                  
MIAMI          PTSUNNY   83  73  72 SE13      30.09S                  
WEST KENDALL   PTSUNNY   81  77  88 SE6       30.08S                  
HOMESTEAD      NOT AVBL                                               

STATION/POSITION SKY/WX   TEMP    WIND        PRES    WAVE   SWELL
                          AIR SEA DIR/SP/G            HT/PER HT/PER
                          (F)     (DEG/KT/KT) (MB)    (FT/S) (FT/S)
VIRGINIA KEY               82 88   90/ 12/ 16 1018.0F
LAKE WORTH                        160/ 23/ 27   N/A
FOWEY ROCKS                81 86  110/ 14/ 15 1018.9R
SETTLEMENT POINT           80     160/ 11/ 13 1020.3R

$$